Newton, KS

11:59 PM CST on December 14, 2019 (GMT -0600)
Newton City County

Weather History for KEWK - October, 2019

Change the Weather History Date:

Thursday, October 31, 2019

  Actual Average Record
Temperature  
Mean Temperature 30 °F -  
Max Temperature 46 °F 57 °F 81 °F (2016)
Min Temperature 14 °F 39 °F 14 °F (2019)
Degree Days  
Heating Degree Days 35    
Moisture  
Dew Point 14 °F    
Average Humidity 56    
Maximum Humidity 92    
Minimum Humidity 22    
Precipitation  
Precipitation 0.00 in - - ()
Sea Level Pressure  
Sea Level Pressure 30.31 in    
Wind  
Wind Speed 10 mph (WSW)    
Max Wind Speed 14 mph    
Max Gust Speed -    
Visibility 10 miles    
Events      
Averages and records for this station are not official NWS values.
T = Trace of Precipitation, MM = Missing Value Source: NWS Daily Summary

Daily Weather History Graph

Daily Weather History Graph

Search for Another Location

Airport or City:

Astronomy

Oct. 31, 2019 Rise Set
Actual Time 7:53 AM CDT 6:31 PM CDT
Civil Twilight 7:26 AM CDT 6:58 PM CDT
Nautical Twilight 6:55 AM CDT 7:29 PM CDT
Astronomical Twilight 6:24 AM CDT 8:00 PM CDT
Moon 11:40 AM CDT (10/31) 9:31 PM CDT (10/31)
Length of Visible Light 11h 32m
Length of Day
10h 37m
Waxing Crescent, 16% of the Moon is Illuminated
Oct 31
Waxing Crescent
Nov 4
First Quarter
Nov 12
Full
Nov 19
Last Quarter
Nov 26
New

Hourly Weather History & Observations

Time (CDT) Temp. Windchill Dew Point Humidity Pressure Visibility Wind Dir Wind Speed Gust Speed Precip Events Conditions
2:56 AM 19.0 °F 7.5 °F 17.1 °F 92% 30.34 in 10.0 mi WNW 10.4 mph - N/A   Clear
3:56 AM 18.0 °F 7.7 °F 16.0 °F 92% 30.33 in 10.0 mi WNW 8.1 mph - N/A   Clear
4:56 AM 17.1 °F 5.8 °F 14.0 °F 88% 30.33 in 10.0 mi WNW 9.2 mph - N/A   Clear
5:56 AM 16.0 °F 3.6 °F 12.9 °F 88% 30.34 in 10.0 mi WNW 10.4 mph - N/A   Clear
7:56 AM 14.0 °F 2.0 °F 10.9 °F 88% 30.37 in 10.0 mi West 9.2 mph - N/A   Clear
8:56 AM 18.0 °F 6.1 °F 12.9 °F 81% 30.38 in 10.0 mi WNW 10.4 mph - N/A   Clear
9:56 AM 24.1 °F 13.7 °F 16.0 °F 71% 30.38 in 10.0 mi WNW 10.4 mph - N/A   Clear
10:56 AM 28.9 °F 20.4 °F 19.0 °F 67% 30.38 in 10.0 mi WNW 9.2 mph - N/A   Clear
11:56 AM 34.0 °F 27.2 °F 21.9 °F 61% 30.38 in 10.0 mi WSW 8.1 mph - N/A   Clear
12:56 PM 37.0 °F 30.4 °F 19.9 °F 50% 30.36 in 10.0 mi WNW 9.2 mph - N/A   Clear
2:56 PM 44.1 °F 37.4 °F 12.9 °F 28% 30.30 in 10.0 mi West 13.8 mph - N/A   Clear
3:56 PM 46.0 °F 41.4 °F 10.0 °F 23% 30.28 in 10.0 mi West 9.2 mph - N/A   Clear
4:56 PM 46.0 °F 40.2 °F 9.0 °F 22% 30.27 in 10.0 mi West 12.7 mph - N/A   Clear
5:56 PM 45.0 °F 40.1 °F 8.1 °F 22% 30.26 in 10.0 mi West 9.2 mph - N/A   Clear
6:56 PM 41.0 °F 37.1 °F 8.1 °F 26% 30.26 in 10.0 mi SW 5.8 mph - N/A   Clear
7:56 PM 34.0 °F 26.6 °F 10.9 °F 38% 30.28 in 10.0 mi South 9.2 mph - N/A   Clear
8:56 PM 35.1 °F 26.9 °F 12.0 °F 39% 30.26 in 10.0 mi South 11.5 mph - N/A   Clear
9:56 PM 35.1 °F 26.9 °F 15.1 °F 44% 30.25 in 10.0 mi SSW 11.5 mph - N/A   Clear
10:56 PM 34.0 °F 25.5 °F 16.0 °F 48% 30.25 in 10.0 mi SSW 11.5 mph - N/A   Clear
11:56 PM 35.1 °F 25.9 °F 17.1 °F 48% 30.23 in 10.0 mi SSW 13.8 mph - N/A   Clear